www.pogodaiklimat.ru

Погода и климат >> Архив погоды >> Индонезия >> Белаван


ПОГОДА в Белаване

  • Прогноз погоды в Белаване
  • Монитор погоды в Белаване

АРХИВ ПОГОДЫ в Белаване

Время (UTC), дата Ветер
(напр.,м/с)
 
Видим.   Явления Облачность Т
(С)
Тd
(С)
f
(%)
Тe
(С)
Тes
(С)
Комфортность P
(гПа)
Po
(гПа)
Тmin
(С)
Tmax
(С)
R
(мм)
R24
(мм)
S
(см)
03 14.09 СЗ 3 8000 м мгла 6/1 540 м
[Sc Ac trans Cs]
+29.6 +23.2 69 +40 +48 очень
душно
1013.1 1012.5
06 14.09 СВ 6 8000 м мгла 8/4 500 м
[Cu Sc As op Cs]
+32.2 +23.6 61 +44 +47 опасность
перегрева
1010.9 1010.3
09 14.09 СВ 4 9000 м 6/3 540 м
[Cb cap Ac trans Cs]
+31.4 +23.9 64 +43 +46 опасность
перегрева
1008.3 1007.8
12 14.09 СВ 4 6000 м мгла 8/3 540 м
[Cb cap Ac trans Ci sp]
+29.6 +24.1 72 +41 +41 опасность
перегрева
1009.9 1009.4 +32.7
15 14.09 Ю 2 5000 м мгла 6/3 500 м
[Cu Sc Ac trans Cs]
+27.8 +24.0 80 +39 +39 очень
душно
1012.0 1011.5
18 14.09 штиль 0 5000 м мгла 8/3 500 м
[Cu Sc Ac As Cs]
+27.6 +24.4 83 +39 +39 очень
душно
1010.7 1010.2
21 14.09 ЮЗ 3 5000 м мгла 8/3 500 м
[Cu Sc Ac As Cs]
+26.9 +22.6 77 +35 +35 очень
душно
1009.3 1008.8
00 15.09 З 2 6000 м мгла 8/3 540 м
[Cb cap Ac trans Ci sp]
+26.2 +22.6 81 +35 +35 очень
душно
1010.2 1009.7 +25.4
03 15.09 ЮЗ 3 7000 м мгла 10/4 500 м
[Cb cap As op Cs]
+29.2 +22.1 66 +38 +42 очень
душно
1012.0 1011.5
06 15.09 СВ 3 10 км 9/4 500 м
[Cb cap As op Cs]
+31.0 +23.4 64 +42 +48 опасность
перегрева
1009.3 1008.8
09 15.09 СВ 5 10 км 9/4 500 м
[Cb cap As op Cs]
+30.4 +25.8 76 +45 +46 опасность
перегрева
1007.1 1006.6
12 15.09 СВ 4 5000 м слаб. дождь 10/6 480 м
[Cb cap As op]
+26.2 +24.7 91 +37 +37 очень
душно
1009.1 1008.6 +31.4 2
15 15.09 Ю 2 5000 м мгла {дождь} 10/4 500 м
[Cb cap As op Cs]
+25.2 +23.5 90 +34 +34 очень
душно
1010.4 1009.9 0.5
18 15.09 Ю 2 5000 м мгла {дождь} 6/3 500 м
[Cb cap Ac trans Ci fib]
+25.6 +23.8 90 +35 +35 очень
душно
1009.8 1009.3 0.5
21 15.09 ЮЗ 3 4000 м мгла 8/4 500 м
[Cb cap Ac trans Cs]
+25.8 +24.7 94 +37 +37 очень
душно
1008.8 1008.3
00 16.09 Ю 3 6000 м осадки на расстоянии 10/5 500 м
[Cb cap As op Cs]
+25.8 +24.3 91 +36 +36 очень
душно
1009.8 1009.3 +25.0 3
03 16.09 ЮВ 2 7000 м мгла 9/5 500 м
[Cb cap As op Cs]
+30.6 +24.3 69 +43 +47 опасность
перегрева
1010.9 1010.4
06 16.09 СВ 3 7000 м мгла 8/4 500 м
[Cb cap As op Cs]
+31.8 +25.3 69 +46 +54 опасность
перегрева
1009.0 1008.5
09 16.09 СВ 4 7000 м мгла 8/5 500 м
[Cb cap As op Cs]
+31.0 +25.5 73 +46 +48 опасность
перегрева
1006.7 1006.2
12 16.09 Ю 4 5000 м осадки на расстоянии 10/5 500 м
[Cb cap As op Cs]
+26.2 +23.5 85 +36 +36 очень
душно
1008.6 1008.1 +32.2
15 16.09 ЮЗ 4 5000 м осадки на расстоянии 10/5 500 м
[Cb cap As op Cs]
+25.8 +23.1 85 +34 +34 очень
душно
1010.4 1009.9
18 16.09 ЮЗ 3 5000 м слаб. дождь 10/5 500 м
[Cb cap As op Cs]
+25.6 +24.6 94 +36 +36 очень
душно
1009.4 1008.8 0.0
21 16.09 ЮЗ 2 5000 м осадки на расстоянии 9/5 500 м
[Cb cap As op Cs]
+25.7 +23.4 87 +35 +35 очень
душно
1008.6 1008.1
00 17.09 штиль 0 6000 м мгла {дождь} 8/4 500 м
[Cu Sc As op Cs]
+25.8 +24.3 91 +36 +36 очень
душно
1010.1 1009.6 +25.2 0.0
03 17.09 В 2 8000 м мгла 5/3 540 м
[Sc As op Cs]
+29.8 +24.0 71 +41 +50 опасность
перегрева
1012.5 1012.0
06 17.09 СВ 5 8000 м мгла 9/4 540 м
[Cu Sc As op Cs]
+31.0 +23.8 66 +43 +46 опасность
перегрева
1009.4 1008.9
09 17.09 СВ 7 8000 м мгла 9/4 540 м
[Cu Sc Ac As Cs]
+31.0 +24.7 69 +44 +44 опасность
перегрева
1007.6 1007.1
12 17.09 В 4 6000 м мгла 9/4 540 м
[Cb cap As op Cs]
+29.8 +25.5 78 +44 +44 опасность
перегрева
1008.6 1008.0 +31.8
15 17.09 З 3 5000 м осадки на расстоянии 10/5 540 м
[Cb cap As op Cs]
+28.0 +23.6 77 +38 +38 очень
душно
1010.8 1010.3
18 17.09 З 4 5000 м осадки на расстоянии 10/5 500 м
[Cb cap As op]
+26.8 +23.8 84 +37 +37 очень
душно
1010.2 1009.7
21 17.09 ЮЗ 4 5000 м зарница 10/5 500 м
[Cb cap As op]
+25.8 +23.7 88 +35 +35 очень
душно
1009.5 1009.0
00 18.09 З 2 5000 м осадки на расстоянии 10/5 500 м
[Cb cap As op]
+25.8 +23.7 88 +35 +35 очень
душно
1010.3 1009.8 +25.2
03 18.09 штиль 0 6000 м мгла 10/5 500 м
[Cb cap As op]
+27.6 +24.4 83 +39 +41 очень
душно
1012.1 1011.6
06 18.09 СВ 4 6000 м мгла 10/5 500 м
[Cb cap As op]
+30.8 +24.7 70 +44 +45 опасность
перегрева
1010.3 1009.7
09 18.09 СВ 6 3000 м дым {туман} 10/5 500 м
[Sc As op Cs]
+31.0 +25.2 71 +45 +46 опасность
перегрева
1008.7 1008.1
12 18.09 В 2 3000 м мгла {туман} 10/5 500 м
[Cb cap As op Cs]
+29.6 +25.3 78 +43 +43 опасность
перегрева
1009.7 1009.2 +31.2
15 18.09 ЮЗ 4 3000 м слаб. дождь 10/5 500 м
[Cb cap As op]
+28.0 +25.4 86 +41 +41 опасность
перегрева
1011.9 1011.4 0.3
18 18.09 З 2 3000 м слаб. дождь {гроза} 10/5 500 м
[Cb cap As op]
+26.2 +24.4 90 +37 +37 очень
душно
1010.9 1010.4 0.5
21 18.09 штиль 0 3000 м слаб. дождь 10/5 500 м
[Cb cap As op]
+26.2 +24.4 90 +37 +37 очень
душно
1010.5 1010.0 2
00 19.09 З 3 4000 м в посл. час дождь {гроза} 10/5 500 м
[Cb cap As op]
+26.2 +25.3 95 +38 +38 очень
душно
1011.7 1011.2 +25.4 0.1
03 19.09 ЮЗ 3 4000 м дым 10/5 540 м
[Cb cap As op]
+29.0 +25.3 80 +42 +43 опасность
перегрева
1012.8 1012.3
06 19.09 СВ 4 5000 м дым 10/5 540 м
[Cu Sc As op]
+30.6 +25.2 73 +44 +46 опасность
перегрева
1010.0 1009.5
09 19.09 СВ 3 5000 м дым 9/4 540 м
[Cu Sc As op Cs]
+31.6 +25.7 71 +47 +49 опасность
перегрева
1008.2 1007.7
12 19.09 З 5 4000 м осадки на расстоянии 10/4 500 м
[Cb cap As op Cs]
+28.2 +24.4 80 +40 +40 очень
душно
1010.2 1009.7 +31.6
15 19.09 Ю 3 3000 м гроза, ливневой дождь 10/5 500 м
[Cb cap As op]
+24.8 +23.5 92 +33 +33 очень
душно
1012.5 1012.0 19
18 19.09 З 2 3000 м слаб. дождь {гроза} 10/5 500 м
[Cb cap As op]
+24.8 +23.5 92 +33 +33 очень
душно
1010.7 1010.2 0.7
21 19.09 Ю 2 4000 м мгла {дождь} 10/5 540 м
[Cb cap As op]
+24.8 +23.5 92 +33 +33 очень
душно
1009.9 1009.4 0.3
00 20.09 штиль 0 4000 м в посл. час дождь {гроза} 10/5 500 м
[Cb cap As op]
+25.6 +23.8 90 +35 +35 очень
душно
1011.4 1010.9 +24.4 0.0
03 20.09 ЮВ 2 7000 м осадки на расстоянии 10/5 500 м
[Cb cap As op Cs]
+27.2 +24.4 85 +38 +42 очень
душно
1013.2 1012.7
06 20.09 В 3 5000 м дым 10/5 500 м
[Cb cap As op Cs]
+28.2 +24.6 81 +40 +45 очень
душно
1012.1 1011.5
09 20.09 В 2 5000 м дым 10/5 500 м
[Cb cap As op Cs]
+29.6 +24.4 74 +42 +44 опасность
перегрева
1007.8 1007.3
12 20.09 СВ 2 4000 м дым 9/5 500 м
[Cu Sc As op Cs]
+28.2 +24.7 81 +40 +40 очень
душно
1008.8 1008.3 +29.8
15 20.09 СВ 2 4000 м дым 9/5 500 м
[Cu Sc As op Cs]
+27.8 +24.9 84 +40 +40 очень
душно
1010.4 1009.9
18 20.09 штиль 0 4000 м дым 9/5 500 м
[Cu Sc As op Cs]
+27.4 +25.3 88 +40 +40 очень
душно
1009.9 1009.4
21 20.09 З 3 4000 м дым 9/5 500 м
[Cu Sc As op Cs]
+26.6 +25.4 93 +39 +39 очень
душно
1008.8 1008.3
00 21.09 штиль 0 2000 м дым 10/5 500 м
[Cb cap As op Cs]
+26.2 +25.3 95 +38 +38 очень
душно
1009.8 1009.3 +25.2

 

Местоположение метеостанции Белаван (Индонезия): широта 3.80 долгота 98.70 высота над уровнем моря 3 м.

В архиве по умолчанию представлена погода в Белаване за последнюю неделю. Архивные данные за месяц целиком и за предыдущие месяцы, начиная с января 2011 года, Вы можете получить, выбрав интересующий диапазон дат из раскрывающегося списка и нажав кнопку "Ввод!".


*Определитесь, кто Вы:
робот инопланетянин человек

Внимание! Время в таблицах - всемирное. Для получения местного времени необходимо прибавить поправку, которая равна 7 ч.

Смотрите также архив погоды в соседних городах и на ближайших метеорологических станциях:

Погода в Медан Полония (Индонезия) (26 км)
Погода в Ситаване (Малайзия) (227 км)
Погода в Лхоксёмаве (Индонезия) (230 км)
Погода в Пенанге (Малайзия) (240 км)
Погода в Сиболге (Индонезия) (251 км)
Погода на Авиабазе Баттерворт (Малайзия) (263 км)
Погода в Ипохе (Малайзия) (280 км)
Погода в Гунунгситоли (Индонезия) (282 км)
Погода в Меулабохе (Индонезия) (291 км)
Погода в Лангкави (Малайзия) (304 км)

Пояснения к столбцам:

Ветер - указаны скорость ветра в м/с - средняя за 10 мин, порывы в срок и между сроками (в фигурных скобках) и направление, откуда дует ветер: С - северный, СВ - северо-восточный, В - восточный, ЮВ - юго-восточный, Ю - южный, ЮЗ - юго-западный, З - западный, СЗ - северо-западный.
Видимость - горизонтальная дальность видимости в метрах или километрах. При видимости от 1 до 10 км при отсутствии осадков обычно наблюдается дымка, при ухудшении видимости до 1 км и менее - туман. В сухую погоду видимость может ухудшаться дымом, пылью или мглою.
Явления - указаны атмосферные явления, наблюдавшиеся в срок или в последний час перед сроком; фигурными скобками обозначены явления, наблюдавшиеся между сроками (за 1-3 часа до срока); квадратными скобками обозначены град или гололедные отложения с указанием их диаметра в мм.
Облачность - указаны через наклонную черту общая и нижняя облачность в баллах и высота нижней границы облаков в метрах; квадратными скобками обозначены формы облаков: Ci - перистые, Cs - перисто-слоистые, Cc - перисто-кучевые, Ac - высококучевые, As - высокослоистые, Sc - слоисто-кучевые, Ns - слоисто-дождевые, Cu - кучевые, Cb - кучево-дождевые. Подробнее классификацию облаков см. в Атласе облаков (PDF).
T - Температура воздуха - температура, измеренная на высоте 2 м над землей.
Td - Температура точки росы - температура, при понижении до которой содержащийся в воздухе водяной пар достигнет насыщения.
f - Относительная влажность воздуха - влажноcть воздуха, измеренная на высоте 2 м над землей.
Te - Эффективная температура - температура, которую ощущает одетый по сезону человек в тени. Характеристика душности погоды. При расчете учитывается влияние влажности воздуха и скорости ветра на теплоощущения человека.
Tes - Эффективная температура на солнце - температура, которую ощущает человек, с поправкой на солнечный нагрев. Характеристика знойности погоды. Зависит от высоты солнца над горизонтом, облачности и скорости ветра. Ночью, в пасмурную погоду, а также при ветре 12 м/с и более поправка равна нулю.
P - Атмосферное давление - приведенное к уровню моря атмосферное давление.
Po - Атмосферное давление - измеренное на уровне метеостанции атмосферное давление.
Tmin - Минимальная температура - минимум температуры воздуха на высоте 2 м над землей.
Tmax - Максимальная температура - максимум температуры воздуха на высоте 2 м над землей.
R - Количество осадков - Количество выпавших осадков за период времени, мм. При наведении курсора мыши на число - период времени, за который выпало указанное количество осадков.
R24 - Количество осадков - Количество выпавших осадков за 24 часа, мм.
S - Снежный покров - Высота снежного покрова, см. При наведении курсора мыши на число - состояние снежного покрова и степень покрытия местности в баллах.